TimeEST,TemperatureF,Dew PointF,Humidity,Sea Level PressureIn,VisibilityMPH,Wind Direction,Wind SpeedMPH,Gust SpeedMPH,PrecipitationIn,Events,Conditions,WindDirDegrees,DateUTC
12:14 AM,31.8,22.8,69,29.54,10.0,WNW,35.7,42.6,N/A,,Overcast,290,2013-01-20 05:14:00
12:34 AM,29.5,18.9,65,29.57,10.0,WNW,31.1,44.9,N/A,,Overcast,290,2013-01-20 05:34:00
12:54 AM,27.7,19.8,72,29.57,5.0,West,24.2,34.5,N/A,Snow,Light Snow,280,2013-01-20 05:54:00
1:15 AM,25.7,21.0,82,29.61,0.2,WNW,20.7,40.3,N/A,Snow,Heavy Snow,290,2013-01-20 06:15:00
1:34 AM,24.1,19.9,84,29.63,0.2,North,-9999.0,-,N/A,Snow,Heavy Snow,0,2013-01-20 06:34:00
1:54 AM,22.8,18.0,82,29.65,0.5,WNW,33.4,-,N/A,Snow,Heavy Snow,300,2013-01-20 06:54:00
3:34 AM,19.0,13.6,79,29.79,0.2,WNW,21.9,39.1,N/A,Snow,Snow,300,2013-01-20 08:34:00
3:54 AM,18.1,11.5,75,29.79,1.0,WNW,26.5,31.1,N/A,Snow,Light Snow,300,2013-01-20 08:54:00
4:14 AM,17.1,10.4,75,29.82,1.0,WNW,20.7,35.7,N/A,Snow,Light Snow,300,2013-01-20 09:14:00
4:34 AM,16.7,9.9,74,29.84,1.2,WNW,28.8,36.8,N/A,Snow,Light Snow,290,2013-01-20 09:34:00
4:54 AM,16.2,8.6,72,29.86,1.5,WNW,20.7,33.4,N/A,Snow,Light Snow,290,2013-01-20 09:54:00
5:14 AM,15.6,8.6,74,29.87,1.8,WNW,20.7,32.2,N/A,Snow,Light Snow,300,2013-01-20 10:14:00
5:34 AM,15.4,9.1,76,29.89,1.5,NW,19.6,24.2,N/A,Snow,Light Snow,310,2013-01-20 10:34:00
5:54 AM,15.3,9.0,76,29.90,2.5,WNW,19.6,25.3,N/A,Snow,Light Snow,300,2013-01-20 10:54:00
6:14 AM,15.3,9.0,76,29.91,5.0,WNW,13.8,21.9,N/A,Snow,Light Snow,290,2013-01-20 11:14:00
6:34 AM,14.9,8.6,76,29.93,4.0,WNW,17.3,21.9,N/A,Snow,Light Snow,290,2013-01-20 11:34:00
7:14 AM,15.6,9.1,76,29.95,7.0,WNW,12.7,-,N/A,Snow,Light Snow,290,2013-01-20 12:14:00
7:34 AM,15.8,9.1,75,29.97,7.0,WNW,15.0,19.6,N/A,Snow,Light Snow,300,2013-01-20 12:34:00
8:14 AM,16.2,9.3,74,30.00,4.0,WNW,16.1,20.7,N/A,Snow,Light Snow,290,2013-01-20 13:14:00
8:34 AM,16.3,9.3,74,30.02,3.0,WNW,16.1,24.2,N/A,Snow,Light Snow,290,2013-01-20 13:34:00
8:55 AM,16.5,8.8,72,30.04,4.0,WNW,15.0,-,N/A,,Haze,300,2013-01-20 13:55:00
9:14 AM,16.5,8.6,71,30.05,5.0,West,16.1,20.7,N/A,,Haze,280,2013-01-20 14:14:00
9:34 AM,16.5,9.1,73,30.06,5.0,WNW,17.3,-,N/A,,Haze,290,2013-01-20 14:34:00
10:34 AM,15.8,9.7,77,30.08,0.5,NW,12.7,20.7,N/A,Snow,Light Snow,310,2013-01-20 15:34:00
10:54 AM,16.2,8.6,72,30.09,2.0,WNW,18.4,24.2,N/A,Snow,Light Snow,300,2013-01-20 15:54:00
11:14 AM,16.2,7.3,68,30.10,1.8,WNW,17.3,27.6,N/A,,Haze,300,2013-01-20 16:14:00
11:34 AM,16.9,7.0,65,30.10,7.0,WNW,15.0,18.4,N/A,,Overcast,300,2013-01-20 16:34:00
11:54 AM,16.9,6.1,63,30.09,4.0,WNW,19.6,25.3,N/A,,Haze,300,2013-01-20 16:54:00
12:14 PM,17.6,6.3,61,30.09,7.0,WNW,17.3,23.0,N/A,,Overcast,300,2013-01-20 17:14:00
12:34 PM,17.2,6.1,62,30.08,7.0,West,16.1,25.3,N/A,,Overcast,280,2013-01-20 17:34:00
12:54 PM,17.2,5.7,61,30.09,7.0,WNW,17.3,21.9,N/A,,Overcast,290,2013-01-20 17:54:00
1:14 PM,16.5,4.6,60,30.09,10.0,WNW,15.0,20.7,N/A,,Overcast,300,2013-01-20 18:14:00
1:35 PM,16.7,4.5,59,30.08,10.0,WNW,16.1,-,N/A,,Overcast,290,2013-01-20 18:35:00
1:54 PM,16.7,3.4,56,30.09,10.0,WNW,13.8,19.6,N/A,,Overcast,300,2013-01-20 18:54:00
2:14 PM,16.5,2.7,55,30.10,10.0,WNW,13.8,21.9,N/A,,Overcast,300,2013-01-20 19:14:00
2:35 PM,16.3,4.1,59,30.10,10.0,WNW,16.1,21.9,N/A,,Overcast,300,2013-01-20 19:35:00
2:54 PM,16.7,4.5,59,30.10,10.0,WNW,11.5,-,N/A,,Overcast,290,2013-01-20 19:54:00
3:35 PM,16.2,4.6,61,30.10,10.0,NW,13.8,-,N/A,,Overcast,320,2013-01-20 20:35:00
3:54 PM,15.6,4.3,61,30.11,10.0,NW,10.4,16.1,N/A,,Mostly Cloudy,310,2013-01-20 20:54:00
4:14 PM,15.3,2.3,57,30.11,10.0,WNW,12.7,18.4,N/A,,Mostly Cloudy,300,2013-01-20 21:14:00
5:14 PM,14.7,4.5,64,30.12,7.0,WNW,11.5,-,N/A,,Overcast,300,2013-01-20 22:14:00
5:34 PM,14.2,2.8,61,30.12,10.0,WNW,11.5,-,N/A,,Mostly Cloudy,290,2013-01-20 22:34:00
5:54 PM,13.5,2.8,63,30.13,10.0,West,8.1,-,N/A,,Mostly Cloudy,280,2013-01-20 22:54:00
6:14 PM,12.7,3.0,65,30.14,10.0,West,4.6,-,N/A,,Mostly Cloudy,280,2013-01-20 23:14:00
6:34 PM,12.2,3.6,68,30.13,10.0,West,5.8,-,N/A,,Mostly Cloudy,270,2013-01-20 23:34:00
6:54 PM,12.2,3.2,67,30.13,10.0,West,3.5,-,N/A,,Mostly Cloudy,280,2013-01-20 23:54:00
7:14 PM,11.3,3.6,71,30.13,10.0,West,3.5,-,N/A,,Mostly Cloudy,280,2013-01-21 00:14:00
7:54 PM,11.1,3.9,73,30.12,10.0,WSW,3.5,-,N/A,,Mostly Cloudy,250,2013-01-21 00:54:00
8:14 PM,11.7,4.6,73,30.12,10.0,West,4.6,-,N/A,,Overcast,260,2013-01-21 01:14:00
8:34 PM,12.6,5.5,74,30.12,10.0,WSW,3.5,-,N/A,,Overcast,250,2013-01-21 01:34:00
8:54 PM,13.1,5.9,73,30.12,10.0,West,4.6,-,N/A,,Overcast,260,2013-01-21 01:54:00
9:15 PM,13.1,6.8,76,30.12,5.0,SSW,3.5,-,N/A,Snow,Light Snow,210,2013-01-21 02:15:00
9:34 PM,12.7,6.8,77,30.11,1.5,Calm,Calm,-,N/A,Snow,Light Snow,0,2013-01-21 02:34:00
9:54 PM,12.2,7.0,80,30.10,5.0,Calm,Calm,-,N/A,Snow,Light Snow,0,2013-01-21 02:54:00
10:15 PM,12.2,7.0,80,30.10,5.0,SSW,3.5,-,N/A,Snow,Light Snow,210,2013-01-21 03:15:00
10:34 PM,12.2,7.2,80,30.09,10.0,SW,4.6,-,N/A,,Overcast,220,2013-01-21 03:34:00
10:54 PM,12.6,7.3,80,30.09,7.0,SW,3.5,-,N/A,Snow,Light Snow,220,2013-01-21 03:54:00
11:14 PM,12.7,7.7,80,30.08,3.0,Calm,Calm,-,N/A,Snow,Light Snow,0,2013-01-21 04:14:00
11:34 PM,13.1,7.9,80,30.08,7.0,Calm,Calm,-,N/A,Snow,Light Snow,0,2013-01-21 04:34:00
11:54 PM,13.1,7.7,79,30.07,7.0,Calm,Calm,-,N/A,Snow,Light Snow,0,2013-01-21 04:54:00